Time,TemperatureF,DewpointF,PressureIn,WindDirection,WindDirectionDegrees,WindSpeedMPH,WindSpeedGustMPH,Humidity,HourlyPrecipIn,Conditions,Clouds,dailyrainin,SoftwareType,DateUTC
2013-06-09 00:02:00,56.5,47.3,30.15,North,353,5.0,7.0,71,0.00,,,0.00,WUHU216DAVISVP2,2013-06-09 07:02:00,
2013-06-09 00:07:00,56.4,47.6,30.14,NNE,13,0.0,9.0,72,0.00,,,0.00,WUHU216DAVISVP2,2013-06-09 07:07:00,
2013-06-09 00:12:00,56.4,47.6,30.14,North,349,2.0,9.0,72,0.00,,,0.00,WUHU216DAVISVP2,2013-06-09 07:12:00,
2013-06-09 00:17:00,56.3,47.5,30.14,NNW,343,2.0,9.0,72,0.00,,,0.00,WUHU216DAVISVP2,2013-06-09 07:17:00,
2013-06-09 00:22:00,56.3,47.5,30.15,East,85,0.0,5.0,72,0.00,,,0.00,WUHU216DAVISVP2,2013-06-09 07:22:00,
2013-06-09 00:27:00,56.3,47.5,30.14,NNW,338,0.0,5.0,72,0.00,,,0.00,WUHU216DAVISVP2,2013-06-09 07:27:00,
2013-06-09 00:32:00,56.2,47.8,30.14,ESE,117,0.0,5.0,73,0.00,,,0.00,WUHU216DAVISVP2,2013-06-09 07:32:00,
2013-06-09 00:37:00,56.1,47.6,30.15,NNW,345,0.0,5.0,73,0.00,,,0.00,WUHU216DAVISVP2,2013-06-09 07:37:00,
2013-06-09 00:42:00,56.0,47.6,30.15,NW,322,2.0,5.0,73,0.00,,,0.00,WUHU216DAVISVP2,2013-06-09 07:42:00,
2013-06-09 00:47:00,55.9,47.8,30.15,North,354,0.0,8.0,74,0.00,,,0.00,WUHU216DAVISVP2,2013-06-09 07:47:00,
2013-06-09 00:52:00,55.7,48.0,30.15,ESE,115,0.0,8.0,75,0.00,,,0.00,WUHU216DAVISVP2,2013-06-09 07:52:00,
2013-06-09 00:57:00,55.6,47.9,30.15,NNE,23,2.0,7.0,75,0.00,,,0.00,WUHU216DAVISVP2,2013-06-09 07:57:00,
2013-06-09 01:02:00,55.4,47.7,30.15,NNW,343,1.0,8.0,75,0.00,,,0.00,WUHU216DAVISVP2,2013-06-09 08:02:00,
2013-06-09 01:07:00,55.4,48.0,30.15,North,350,0.0,8.0,76,0.00,,,0.00,WUHU216DAVISVP2,2013-06-09 08:07:00,
2013-06-09 01:12:00,55.4,48.0,30.15,North,349,0.0,7.0,76,0.00,,,0.00,WUHU216DAVISVP2,2013-06-09 08:12:00,
2013-06-09 01:17:00,55.3,47.9,30.15,North,352,0.0,7.0,76,0.00,,,0.00,WUHU216DAVISVP2,2013-06-09 08:17:00,
2013-06-09 01:22:00,55.3,47.9,30.14,WNW,285,0.0,6.0,76,0.00,,,0.00,WUHU216DAVISVP2,2013-06-09 08:22:00,
2013-06-09 01:27:00,55.2,47.8,30.14,NNW,346,1.0,6.0,76,0.00,,,0.00,WUHU216DAVISVP2,2013-06-09 08:27:00,
2013-06-09 01:32:00,55.1,47.7,30.14,NNW,343,3.0,6.0,76,0.00,,,0.00,WUHU216DAVISVP2,2013-06-09 08:32:00,
2013-06-09 01:37:00,55.1,47.8,30.14,NNW,331,1.0,6.0,76,0.00,,,0.00,WUHU216DAVISVP2,2013-06-09 08:37:00,
2013-06-09 01:42:00,55.1,48.1,30.14,ENE,61,0.0,6.0,77,0.00,,,0.00,WUHU216DAVISVP2,2013-06-09 08:42:00,
2013-06-09 01:47:00,55.0,48.0,30.14,NNW,345,5.0,5.0,77,0.00,,,0.00,WUHU216DAVISVP2,2013-06-09 08:47:00,
2013-06-09 01:52:00,54.9,47.9,30.14,NE,39,0.0,5.0,77,0.00,,,0.00,WUHU216DAVISVP2,2013-06-09 08:52:00,
2013-06-09 01:57:00,54.8,47.8,30.14,North,360,0.0,5.0,77,0.00,,,0.00,WUHU216DAVISVP2,2013-06-09 08:57:00,
2013-06-09 02:02:00,54.8,47.8,30.13,ENE,68,1.0,5.0,77,0.00,,,0.00,WUHU216DAVISVP2,2013-06-09 09:02:00,
2013-06-09 02:07:00,54.7,48.0,30.14,East,81,0.0,5.0,78,0.00,,,0.00,WUHU216DAVISVP2,2013-06-09 09:07:00,
2013-06-09 02:12:00,54.7,48.0,30.14,NW,324,1.0,4.0,78,0.00,,,0.00,WUHU216DAVISVP2,2013-06-09 09:12:00,
2013-06-09 02:17:00,54.7,48.0,30.13,ENE,69,1.0,4.0,78,0.00,,,0.00,WUHU216DAVISVP2,2013-06-09 09:17:00,
2013-06-09 02:22:00,54.6,47.9,30.13,NE,56,0.0,3.0,78,0.00,,,0.00,WUHU216DAVISVP2,2013-06-09 09:22:00,
2013-06-09 02:27:00,54.5,48.2,30.13,ENE,60,1.0,3.0,79,0.00,,,0.00,WUHU216DAVISVP2,2013-06-09 09:27:00,
2013-06-09 02:32:00,54.3,48.0,30.13,NE,55,0.0,3.0,79,0.00,,,0.00,WUHU216DAVISVP2,2013-06-09 09:32:00,
2013-06-09 02:37:00,54.3,48.3,30.14,North,360,1.0,3.0,80,0.00,,,0.00,WUHU216DAVISVP2,2013-06-09 09:37:00,
2013-06-09 02:42:00,54.1,48.1,30.14,ESE,105,0.0,3.0,80,0.00,,,0.00,WUHU216DAVISVP2,2013-06-09 09:42:00,
2013-06-09 02:47:00,54.0,48.0,30.14,ENE,63,0.0,6.0,80,0.00,,,0.00,WUHU216DAVISVP2,2013-06-09 09:47:00,
2013-06-09 02:52:00,53.9,47.9,30.14,NNE,16,0.0,6.0,80,0.00,,,0.00,WUHU216DAVISVP2,2013-06-09 09:52:00,
2013-06-09 02:57:00,53.8,47.8,30.14,NNW,342,1.0,6.0,80,0.00,,,0.00,WUHU216DAVISVP2,2013-06-09 09:57:00,
2013-06-09 03:02:00,53.7,48.0,30.14,North,349,0.0,6.0,81,0.00,,,0.00,WUHU216DAVISVP2,2013-06-09 10:02:00,
2013-06-09 03:07:00,53.6,47.9,30.14,NNE,33,0.0,4.0,81,0.00,,,0.00,WUHU216DAVISVP2,2013-06-09 10:07:00,
2013-06-09 03:12:00,53.5,47.8,30.14,East,87,0.0,3.0,81,0.00,,,0.00,WUHU216DAVISVP2,2013-06-09 10:12:00,
2013-06-09 03:17:00,53.4,47.7,30.14,NE,48,0.0,3.0,81,0.00,,,0.00,WUHU216DAVISVP2,2013-06-09 10:17:00,
2013-06-09 03:22:00,53.3,47.6,30.14,NNW,338,0.0,4.0,81,0.00,,,0.00,WUHU216DAVISVP2,2013-06-09 10:22:00,
2013-06-09 03:27:00,53.2,47.6,30.13,ENE,75,1.0,4.0,81,0.00,,,0.00,WUHU216DAVISVP2,2013-06-09 10:27:00,
2013-06-09 03:32:00,53.0,47.7,30.13,East,97,0.0,4.0,82,0.00,,,0.00,WUHU216DAVISVP2,2013-06-09 10:32:00,
2013-06-09 03:37:00,52.9,47.6,30.13,ENE,61,1.0,3.0,82,0.00,,,0.00,WUHU216DAVISVP2,2013-06-09 10:37:00,
2013-06-09 03:42:00,52.7,47.4,30.13,ENE,72,0.0,3.0,82,0.00,,,0.00,WUHU216DAVISVP2,2013-06-09 10:42:00,
2013-06-09 03:47:00,52.5,47.2,30.13,ENE,70,0.0,3.0,82,0.00,,,0.00,WUHU216DAVISVP2,2013-06-09 10:47:00,
2013-06-09 03:52:00,52.3,47.0,30.13,East,80,0.0,3.0,82,0.00,,,0.00,WUHU216DAVISVP2,2013-06-09 10:52:00,
2013-06-09 03:57:00,52.1,47.1,30.13,ENE,72,1.0,3.0,83,0.00,,,0.00,WUHU216DAVISVP2,2013-06-09 10:57:00,
2013-06-09 04:02:00,51.9,46.9,30.13,ENE,69,0.0,1.0,83,0.00,,,0.00,WUHU216DAVISVP2,2013-06-09 11:02:00,
2013-06-09 04:07:00,51.7,47.0,30.13,ENE,70,0.0,1.0,84,0.00,,,0.00,WUHU216DAVISVP2,2013-06-09 11:07:00,
2013-06-09 04:12:00,51.5,46.8,30.13,North,4,0.0,1.0,84,0.00,,,0.00,WUHU216DAVISVP2,2013-06-09 11:12:00,
2013-06-09 04:17:00,51.3,46.9,30.13,ENE,74,0.0,1.0,85,0.00,,,0.00,WUHU216DAVISVP2,2013-06-09 11:17:00,
2013-06-09 04:22:00,51.2,46.8,30.13,East,79,0.0,2.0,85,0.00,,,0.00,WUHU216DAVISVP2,2013-06-09 11:22:00,
2013-06-09 04:27:00,51.1,46.7,30.14,East,82,0.0,2.0,85,0.00,,,0.00,WUHU216DAVISVP2,2013-06-09 11:27:00,
2013-06-09 04:32:00,51.0,46.9,30.14,North,8,1.0,3.0,86,0.00,,,0.00,WUHU216DAVISVP2,2013-06-09 11:32:00,
2013-06-09 04:37:00,51.0,46.9,30.14,North,354,0.0,3.0,86,0.00,,,0.00,WUHU216DAVISVP2,2013-06-09 11:37:00,
2013-06-09 04:42:00,51.2,47.1,30.14,East,89,0.0,3.0,86,0.00,,,0.00,WUHU216DAVISVP2,2013-06-09 11:42:00,
2013-06-09 04:47:00,51.4,47.3,30.13,East,101,0.0,3.0,86,0.00,,,0.00,WUHU216DAVISVP2,2013-06-09 11:47:00,
2013-06-09 04:52:00,51.6,47.2,30.14,NNE,13,0.0,3.0,85,0.00,,,0.00,WUHU216DAVISVP2,2013-06-09 11:52:00,
2013-06-09 04:57:00,51.7,47.3,30.14,ENE,65,0.0,3.0,85,0.00,,,0.00,WUHU216DAVISVP2,2013-06-09 11:57:00,
2013-06-09 05:02:00,51.7,47.3,30.14,ESE,103,1.0,3.0,85,0.00,,,0.00,WUHU216DAVISVP2,2013-06-09 12:02:00,
2013-06-09 05:07:00,51.7,47.0,30.14,ENE,68,0.0,3.0,84,0.00,,,0.00,WUHU216DAVISVP2,2013-06-09 12:07:00,
2013-06-09 05:12:00,51.8,47.1,30.14,ENE,61,1.0,3.0,84,0.00,,,0.00,WUHU216DAVISVP2,2013-06-09 12:12:00,
2013-06-09 05:17:00,51.8,47.1,30.13,ENE,72,0.0,3.0,84,0.00,,,0.00,WUHU216DAVISVP2,2013-06-09 12:17:00,
2013-06-09 05:22:00,51.8,47.1,30.14,ENE,62,0.0,3.0,84,0.00,,,0.00,WUHU216DAVISVP2,2013-06-09 12:22:00,
2013-06-09 05:27:00,51.9,47.2,30.14,East,82,0.0,3.0,84,0.00,,,0.00,WUHU216DAVISVP2,2013-06-09 12:27:00,
2013-06-09 05:32:00,51.9,47.2,30.13,ENE,69,0.0,3.0,84,0.00,,,0.00,WUHU216DAVISVP2,2013-06-09 12:32:00,
2013-06-09 05:37:00,52.0,47.3,30.13,ENE,57,1.0,3.0,84,0.00,,,0.00,WUHU216DAVISVP2,2013-06-09 12:37:00,
2013-06-09 05:42:00,52.0,47.3,30.13,NNW,341,0.0,2.0,84,0.00,,,0.00,WUHU216DAVISVP2,2013-06-09 12:42:00,
2013-06-09 05:47:00,52.1,47.4,30.13,NNE,22,1.0,4.0,84,0.00,,,0.00,WUHU216DAVISVP2,2013-06-09 12:47:00,
2013-06-09 05:52:00,52.1,47.4,30.13,NNE,20,0.0,4.0,84,0.00,,,0.00,WUHU216DAVISVP2,2013-06-09 12:52:00,
2013-06-09 05:57:00,52.2,47.2,30.13,East,79,0.0,4.0,83,0.00,,,0.00,WUHU216DAVISVP2,2013-06-09 12:57:00,
2013-06-09 06:02:00,52.3,47.3,30.13,NE,41,0.0,3.0,83,0.00,,,0.00,WUHU216DAVISVP2,2013-06-09 13:02:00,
2013-06-09 06:07:00,52.4,47.4,30.13,ESE,114,2.0,4.0,83,0.00,,,0.00,WUHU216DAVISVP2,2013-06-09 13:07:00,
2013-06-09 06:12:00,52.5,47.2,30.13,East,89,2.0,5.0,82,0.00,,,0.00,WUHU216DAVISVP2,2013-06-09 13:12:00,
2013-06-09 06:17:00,52.6,47.3,30.13,ENE,65,3.0,5.0,82,0.00,,,0.00,WUHU216DAVISVP2,2013-06-09 13:17:00,
2013-06-09 06:22:00,52.7,47.4,30.13,ESE,108,0.0,5.0,82,0.00,,,0.00,WUHU216DAVISVP2,2013-06-09 13:22:00,
2013-06-09 06:27:00,53.2,47.6,30.13,ENE,76,3.0,5.0,81,0.00,,,0.00,WUHU216DAVISVP2,2013-06-09 13:27:00,
2013-06-09 06:32:00,53.3,47.6,30.14,ENE,62,1.0,6.0,81,0.00,,,0.00,WUHU216DAVISVP2,2013-06-09 13:32:00,
2013-06-09 06:37:00,53.8,47.8,30.14,SSE,156,0.0,6.0,80,0.00,,,0.00,WUHU216DAVISVP2,2013-06-09 13:37:00,
2013-06-09 06:42:00,54.3,47.6,30.14,ESE,105,0.0,5.0,78,0.00,,,0.00,WUHU216DAVISVP2,2013-06-09 13:42:00,
2013-06-09 06:47:00,53.9,47.3,30.14,North,6,0.0,4.0,78,0.00,,,0.00,WUHU216DAVISVP2,2013-06-09 13:47:00,
2013-06-09 06:52:00,54.1,47.5,30.14,ESE,107,1.0,4.0,78,0.00,,,0.00,WUHU216DAVISVP2,2013-06-09 13:52:00,
2013-06-09 06:57:00,54.0,47.4,30.14,North,5,1.0,4.0,78,0.00,,,0.00,WUHU216DAVISVP2,2013-06-09 13:57:00,
2013-06-09 07:02:00,53.5,46.9,30.14,ESE,108,0.0,4.0,78,0.00,,,0.00,WUHU216DAVISVP2,2013-06-09 14:02:00,
2013-06-09 07:07:00,53.2,46.9,30.14,ENE,74,2.0,5.0,79,0.00,,,0.00,WUHU216DAVISVP2,2013-06-09 14:07:00,
2013-06-09 07:12:00,52.9,46.9,30.14,ENE,65,2.0,5.0,80,0.00,,,0.00,WUHU216DAVISVP2,2013-06-09 14:12:00,
2013-06-09 07:17:00,52.8,47.1,30.14,NNE,33,0.0,5.0,81,0.00,,,0.00,WUHU216DAVISVP2,2013-06-09 14:17:00,
2013-06-09 07:22:00,52.7,47.1,30.14,ENE,63,1.0,5.0,81,0.00,,,0.00,WUHU216DAVISVP2,2013-06-09 14:22:00,
2013-06-09 07:27:00,52.7,47.4,30.14,North,10,0.0,5.0,82,0.00,,,0.00,WUHU216DAVISVP2,2013-06-09 14:27:00,
2013-06-09 07:32:00,52.8,47.5,30.14,ENE,70,1.0,5.0,82,0.00,,,0.00,WUHU216DAVISVP2,2013-06-09 14:32:00,
2013-06-09 07:37:00,52.9,47.3,30.14,ENE,64,1.0,4.0,81,0.00,,,0.00,WUHU216DAVISVP2,2013-06-09 14:37:00,
2013-06-09 07:42:00,52.9,47.3,30.14,ENE,70,1.0,4.0,81,0.00,,,0.00,WUHU216DAVISVP2,2013-06-09 14:42:00,
2013-06-09 07:47:00,52.9,47.3,30.14,ESE,120,0.0,4.0,81,0.00,,,0.00,WUHU216DAVISVP2,2013-06-09 14:47:00,
2013-06-09 07:52:00,52.8,47.2,30.15,ENE,70,0.0,4.0,81,0.00,,,0.00,WUHU216DAVISVP2,2013-06-09 14:52:00,
2013-06-09 07:57:00,53.0,47.3,30.15,NNE,18,0.0,3.0,81,0.00,,,0.00,WUHU216DAVISVP2,2013-06-09 14:57:00,
2013-06-09 08:02:00,53.0,47.4,30.14,North,3,0.0,3.0,81,0.00,,,0.00,WUHU216DAVISVP2,2013-06-09 15:02:00,
2013-06-09 08:07:00,53.1,47.5,30.14,North,353,0.0,3.0,81,0.00,,,0.00,WUHU216DAVISVP2,2013-06-09 15:07:00,
2013-06-09 08:12:00,53.1,47.5,30.15,North,4,0.0,3.0,81,0.00,,,0.00,WUHU216DAVISVP2,2013-06-09 15:12:00,
2013-06-09 08:17:00,53.1,47.5,30.15,North,8,1.0,2.0,81,0.00,,,0.00,WUHU216DAVISVP2,2013-06-09 15:17:00,
2013-06-09 08:22:00,53.1,47.5,30.15,North,11,0.0,3.0,81,0.00,,,0.00,WUHU216DAVISVP2,2013-06-09 15:22:00,
2013-06-09 08:27:00,53.2,47.6,30.15,NE,39,0.0,3.0,81,0.00,,,0.00,WUHU216DAVISVP2,2013-06-09 15:27:00,
2013-06-09 08:32:00,53.4,47.7,30.15,NNE,25,0.0,3.0,81,0.00,,,0.00,WUHU216DAVISVP2,2013-06-09 15:32:00,
2013-06-09 08:37:00,53.7,47.7,30.15,West,259,1.0,3.0,80,0.00,,,0.00,WUHU216DAVISVP2,2013-06-09 15:37:00,
2013-06-09 08:42:00,53.9,47.9,30.15,WSW,257,0.0,2.0,80,0.00,,,0.00,WUHU216DAVISVP2,2013-06-09 15:42:00,
2013-06-09 08:47:00,53.7,47.7,30.15,North,360,0.0,3.0,80,0.00,,,0.00,WUHU216DAVISVP2,2013-06-09 15:47:00,
2013-06-09 08:52:00,53.7,48.0,30.15,North,359,0.0,3.0,81,0.00,,,0.00,WUHU216DAVISVP2,2013-06-09 15:52:00,
2013-06-09 08:57:00,53.9,48.2,30.15,North,360,0.0,2.0,81,0.00,,,0.00,WUHU216DAVISVP2,2013-06-09 15:57:00,
2013-06-09 09:02:00,54.0,47.4,30.15,North,4,0.0,3.0,78,0.00,,,0.00,WUHU216DAVISVP2,2013-06-09 16:02:00,
2013-06-09 09:07:00,54.5,48.2,30.15,North,358,0.0,3.0,79,0.00,,,0.00,WUHU216DAVISVP2,2013-06-09 16:07:00,
2013-06-09 09:12:00,54.7,48.4,30.15,North,8,0.0,2.0,79,0.00,,,0.00,WUHU216DAVISVP2,2013-06-09 16:12:00,
2013-06-09 09:17:00,54.9,48.2,30.15,North,8,0.0,2.0,78,0.00,,,0.00,WUHU216DAVISVP2,2013-06-09 16:17:00,
2013-06-09 09:22:00,55.0,47.7,30.15,North,360,0.0,1.0,76,0.00,,,0.00,WUHU216DAVISVP2,2013-06-09 16:22:00,
2013-06-09 09:27:00,55.3,48.3,30.15,North,358,0.0,1.0,77,0.00,,,0.00,WUHU216DAVISVP2,2013-06-09 16:27:00,
2013-06-09 09:32:00,55.2,48.2,30.15,SW,235,0.0,1.0,77,0.00,,,0.00,WUHU216DAVISVP2,2013-06-09 16:32:00,
2013-06-09 09:37:00,55.0,47.0,30.15,ESE,113,0.0,2.0,74,0.00,,,0.00,WUHU216DAVISVP2,2013-06-09 16:37:00,
2013-06-09 09:42:00,55.2,47.8,30.15,NE,45,0.0,2.0,76,0.00,,,0.00,WUHU216DAVISVP2,2013-06-09 16:42:00,
2013-06-09 09:47:00,55.4,48.0,30.16,NNE,32,0.0,2.0,76,0.00,,,0.00,WUHU216DAVISVP2,2013-06-09 16:47:00,
2013-06-09 09:52:00,55.4,47.7,30.15,NNE,32,0.0,2.0,75,0.00,,,0.00,WUHU216DAVISVP2,2013-06-09 16:52:00,
2013-06-09 09:57:00,55.5,47.7,30.15,NNW,334,1.0,1.0,75,0.00,,,0.00,WUHU216DAVISVP2,2013-06-09 16:57:00,
2013-06-09 10:02:00,55.8,48.0,30.16,WNW,292,0.0,1.0,75,0.00,,,0.00,WUHU216DAVISVP2,2013-06-09 17:02:00,
2013-06-09 10:07:00,55.7,47.6,30.16,West,260,0.0,1.0,74,0.00,,,0.00,WUHU216DAVISVP2,2013-06-09 17:07:00,
2013-06-09 10:12:00,55.5,47.1,30.15,ESE,113,0.0,1.0,73,0.00,,,0.00,WUHU216DAVISVP2,2013-06-09 17:12:00,
2013-06-09 10:17:00,55.9,48.2,30.16,SW,236,0.0,1.0,75,0.00,,,0.00,WUHU216DAVISVP2,2013-06-09 17:17:00,
2013-06-09 10:22:00,56.2,48.5,30.15,NW,314,0.0,1.0,75,0.00,,,0.00,WUHU216DAVISVP2,2013-06-09 17:22:00,
2013-06-09 10:27:00,56.2,47.8,30.16,NNW,347,0.0,1.0,73,0.00,,,0.00,WUHU216DAVISVP2,2013-06-09 17:27:00,
2013-06-09 10:32:00,56.4,48.0,30.15,NNW,339,2.0,5.0,73,0.00,,,0.00,WUHU216DAVISVP2,2013-06-09 17:32:00,
2013-06-09 10:37:00,56.2,47.4,30.16,NNE,23,0.0,5.0,72,0.00,,,0.00,WUHU216DAVISVP2,2013-06-09 17:37:00,
2013-06-09 10:42:00,56.2,47.3,30.16,NNW,348,3.0,5.0,72,0.00,,,0.00,WUHU216DAVISVP2,2013-06-09 17:42:00,
2013-06-09 10:47:00,55.9,47.1,30.15,NE,34,0.0,5.0,72,0.00,,,0.00,WUHU216DAVISVP2,2013-06-09 17:47:00,
2013-06-09 10:52:00,55.6,46.8,30.15,North,353,0.0,5.0,72,0.00,,,0.00,WUHU216DAVISVP2,2013-06-09 17:52:00,
2013-06-09 10:57:00,55.9,47.1,30.15,ENE,74,1.0,5.0,72,0.00,,,0.00,WUHU216DAVISVP2,2013-06-09 17:57:00,
2013-06-09 11:02:00,56.1,47.3,30.16,North,360,1.0,2.0,72,0.00,,,0.00,WUHU216DAVISVP2,2013-06-09 18:02:00,
2013-06-09 11:07:00,56.6,48.2,30.16,East,80,0.0,2.0,73,0.00,,,0.00,WUHU216DAVISVP2,2013-06-09 18:07:00,
2013-06-09 11:12:00,56.3,47.5,30.16,East,86,0.0,4.0,72,0.00,,,0.00,WUHU216DAVISVP2,2013-06-09 18:12:00,
2013-06-09 11:17:00,56.3,47.5,30.16,East,89,0.0,4.0,72,0.00,,,0.00,WUHU216DAVISVP2,2013-06-09 18:17:00,
2013-06-09 11:22:00,56.8,48.2,30.16,NE,55,1.0,3.0,73,0.00,,,0.00,WUHU216DAVISVP2,2013-06-09 18:22:00,
2013-06-09 11:27:00,57.1,47.8,30.16,East,79,0.0,3.0,71,0.00,,,0.00,WUHU216DAVISVP2,2013-06-09 18:27:00,
2013-06-09 11:32:00,57.4,48.1,30.16,SSE,155,0.0,2.0,71,0.00,,,0.00,WUHU216DAVISVP2,2013-06-09 18:32:00,
2013-06-09 11:37:00,57.5,47.8,30.16,NW,319,0.0,3.0,70,0.00,,,0.00,WUHU216DAVISVP2,2013-06-09 18:37:00,
2013-06-09 11:42:00,57.4,47.7,30.16,East,86,1.0,4.0,70,0.00,,,0.00,WUHU216DAVISVP2,2013-06-09 18:42:00,
2013-06-09 11:47:00,57.1,47.8,30.16,South,172,0.0,4.0,71,0.00,,,0.00,WUHU216DAVISVP2,2013-06-09 18:47:00,
2013-06-09 11:52:00,57.7,48.1,30.16,ENE,65,0.0,4.0,70,0.00,,,0.00,WUHU216DAVISVP2,2013-06-09 18:52:00,
2013-06-09 11:57:00,58.0,47.9,30.16,NE,55,1.0,4.0,69,0.00,,,0.00,WUHU216DAVISVP2,2013-06-09 18:57:00,
2013-06-09 12:02:00,57.9,47.8,30.16,East,82,2.0,3.0,69,0.00,,,0.00,WUHU216DAVISVP2,2013-06-09 19:02:00,
2013-06-09 12:07:00,58.1,48.0,30.15,SW,231,0.0,3.0,69,0.00,,,0.00,WUHU216DAVISVP2,2013-06-09 19:07:00,
2013-06-09 12:12:00,58.5,48.0,30.15,WSW,252,0.0,2.0,68,0.00,,,0.00,WUHU216DAVISVP2,2013-06-09 19:12:00,
2013-06-09 12:17:00,58.7,48.2,30.15,North,8,1.0,3.0,68,0.00,,,0.00,WUHU216DAVISVP2,2013-06-09 19:17:00,
2013-06-09 12:22:00,59.1,48.3,30.15,South,173,0.0,3.0,67,0.00,,,0.00,WUHU216DAVISVP2,2013-06-09 19:22:00,
2013-06-09 12:27:00,59.7,48.5,30.15,ENE,60,2.0,3.0,66,0.00,,,0.00,WUHU216DAVISVP2,2013-06-09 19:27:00,
2013-06-09 12:32:00,59.7,48.1,30.15,SW,221,3.0,3.0,65,0.00,,,0.00,WUHU216DAVISVP2,2013-06-09 19:32:00,
2013-06-09 12:37:00,60.1,47.6,30.15,SW,233,1.0,4.0,63,0.00,,,0.00,WUHU216DAVISVP2,2013-06-09 19:37:00,
2013-06-09 12:42:00,61.3,48.6,30.15,NE,43,0.0,4.0,63,0.00,,,0.00,WUHU216DAVISVP2,2013-06-09 19:42:00,
2013-06-09 12:47:00,62.4,47.1,30.15,East,82,1.0,4.0,57,0.00,,,0.00,WUHU216DAVISVP2,2013-06-09 19:47:00,
2013-06-09 12:52:00,62.7,47.2,30.14,North,353,0.0,4.0,57,0.00,,,0.00,WUHU216DAVISVP2,2013-06-09 19:52:00,
2013-06-09 12:57:00,64.1,47.7,30.14,NNE,20,1.0,3.0,55,0.00,,,0.00,WUHU216DAVISVP2,2013-06-09 19:57:00,
2013-06-09 13:02:00,63.7,46.3,30.14,North,353,1.0,4.0,53,0.00,,,0.00,WUHU216DAVISVP2,2013-06-09 20:02:00,
2013-06-09 13:07:00,63.6,49.1,30.14,SW,226,1.0,4.0,59,0.00,,,0.00,WUHU216DAVISVP2,2013-06-09 20:07:00,
2013-06-09 13:12:00,64.3,49.8,30.14,NNW,348,1.0,3.0,59,0.00,,,0.00,WUHU216DAVISVP2,2013-06-09 20:12:00,
2013-06-09 13:17:00,64.7,49.7,30.14,South,170,0.0,3.0,58,0.00,,,0.00,WUHU216DAVISVP2,2013-06-09 20:17:00,
2013-06-09 13:22:00,65.6,49.6,30.14,SW,222,6.0,6.0,56,0.00,,,0.00,WUHU216DAVISVP2,2013-06-09 20:22:00,
2013-06-09 13:27:00,65.5,49.5,30.13,ESE,117,0.0,6.0,56,0.00,,,0.00,WUHU216DAVISVP2,2013-06-09 20:27:00,
2013-06-09 13:32:00,66.0,49.5,30.13,SW,217,3.0,6.0,55,0.00,,,0.00,WUHU216DAVISVP2,2013-06-09 20:32:00,
2013-06-09 13:37:00,66.4,49.3,30.13,North,360,0.0,6.0,54,0.00,,,0.00,WUHU216DAVISVP2,2013-06-09 20:37:00,
2013-06-09 13:42:00,67.0,49.9,30.13,SSE,158,0.0,6.0,54,0.00,,,0.00,WUHU216DAVISVP2,2013-06-09 20:42:00,
2013-06-09 13:47:00,67.5,49.3,30.13,SSW,200,2.0,6.0,52,0.00,,,0.00,WUHU216DAVISVP2,2013-06-09 20:47:00,
2013-06-09 13:52:00,67.9,49.2,30.13,NE,40,1.0,5.0,51,0.00,,,0.00,WUHU216DAVISVP2,2013-06-09 20:52:00,
2013-06-09 13:57:00,68.0,48.7,30.13,North,8,0.0,5.0,50,0.00,,,0.00,WUHU216DAVISVP2,2013-06-09 20:57:00,
2013-06-09 14:02:00,68.2,48.8,30.13,NNE,12,0.0,5.0,50,0.00,,,0.00,WUHU216DAVISVP2,2013-06-09 21:02:00,
2013-06-09 14:07:00,67.3,48.6,30.13,NNE,25,1.0,6.0,51,0.00,,,0.00,WUHU216DAVISVP2,2013-06-09 21:07:00,
2013-06-09 14:12:00,67.3,49.1,30.13,SW,224,0.0,6.0,52,0.00,,,0.00,WUHU216DAVISVP2,2013-06-09 21:12:00,
2013-06-09 14:17:00,68.5,48.6,30.13,ESE,122,1.0,6.0,49,0.00,,,0.00,WUHU216DAVISVP2,2013-06-09 21:17:00,
2013-06-09 14:22:00,68.8,47.7,30.12,ESE,108,4.0,6.0,47,0.00,,,0.00,WUHU216DAVISVP2,2013-06-09 21:22:00,
2013-06-09 14:27:00,69.2,47.5,30.12,SW,216,2.0,7.0,46,0.00,,,0.00,WUHU216DAVISVP2,2013-06-09 21:27:00,
2013-06-09 14:32:00,69.1,47.4,30.12,ENE,70,0.0,7.0,46,0.00,,,0.00,WUHU216DAVISVP2,2013-06-09 21:32:00,
2013-06-09 14:37:00,68.5,47.5,30.12,North,10,1.0,7.0,47,0.00,,,0.00,WUHU216DAVISVP2,2013-06-09 21:37:00,
2013-06-09 14:42:00,68.1,47.1,30.12,NNE,20,1.0,7.0,47,0.00,,,0.00,WUHU216DAVISVP2,2013-06-09 21:42:00,
2013-06-09 14:47:00,68.0,48.2,30.11,SSW,210,0.0,6.0,49,0.00,,,0.00,WUHU216DAVISVP2,2013-06-09 21:47:00,
2013-06-09 14:52:00,67.9,48.1,30.11,SE,127,0.0,6.0,49,0.00,,,0.00,WUHU216DAVISVP2,2013-06-09 21:52:00,
2013-06-09 14:57:00,68.6,47.6,30.11,North,359,0.0,6.0,47,0.00,,,0.00,WUHU216DAVISVP2,2013-06-09 21:57:00,
2013-06-09 15:02:00,68.2,47.8,30.11,SE,138,0.0,3.0,48,0.00,,,0.00,WUHU216DAVISVP2,2013-06-09 22:02:00,
2013-06-09 15:07:00,67.8,48.0,30.11,WSW,243,0.0,3.0,49,0.00,,,0.00,WUHU216DAVISVP2,2013-06-09 22:07:00,
2013-06-09 15:12:00,67.5,48.2,30.11,NE,56,0.0,2.0,50,0.00,,,0.00,WUHU216DAVISVP2,2013-06-09 22:12:00,
2013-06-09 15:17:00,67.4,48.2,30.12,WSW,243,1.0,3.0,50,0.00,,,0.00,WUHU216DAVISVP2,2013-06-09 22:17:00,
2013-06-09 15:22:00,67.1,47.9,30.11,ENE,76,0.0,3.0,50,0.00,,,0.00,WUHU216DAVISVP2,2013-06-09 22:22:00,
2013-06-09 15:27:00,66.8,48.1,30.11,West,259,0.0,2.0,51,0.00,,,0.00,WUHU216DAVISVP2,2013-06-09 22:27:00,
2013-06-09 15:32:00,66.7,48.1,30.11,WNW,291,0.0,3.0,51,0.00,,,0.00,WUHU216DAVISVP2,2013-06-09 22:32:00,
2013-06-09 15:37:00,66.0,48.5,30.11,WSW,242,0.0,5.0,53,0.00,,,0.00,WUHU216DAVISVP2,2013-06-09 22:37:00,
2013-06-09 15:42:00,65.6,48.1,30.11,NNE,22,0.0,5.0,53,0.00,,,0.00,WUHU216DAVISVP2,2013-06-09 22:42:00,
2013-06-09 15:47:00,64.7,48.3,30.11,North,3,1.0,4.0,55,0.00,,,0.00,WUHU216DAVISVP2,2013-06-09 22:47:00,
2013-06-09 15:52:00,64.9,49.4,30.11,NE,41,2.0,4.0,57,0.00,,,0.00,WUHU216DAVISVP2,2013-06-09 22:52:00,
2013-06-09 15:57:00,64.3,48.4,30.11,NNE,25,2.0,5.0,56,0.00,,,0.00,WUHU216DAVISVP2,2013-06-09 22:57:00,
2013-06-09 16:02:00,63.3,47.9,30.11,SSE,158,0.0,7.0,57,0.00,,,0.00,WUHU216DAVISVP2,2013-06-09 23:02:00,
2013-06-09 16:07:00,62.9,48.0,30.11,NE,48,2.0,7.0,58,0.00,,,0.00,WUHU216DAVISVP2,2013-06-09 23:07:00,
2013-06-09 16:12:00,62.2,47.8,30.10,North,5,1.0,7.0,59,0.00,,,0.00,WUHU216DAVISVP2,2013-06-09 23:12:00,
2013-06-09 16:17:00,62.3,47.9,30.10,South,180,1.0,7.0,59,0.00,,,0.00,WUHU216DAVISVP2,2013-06-09 23:17:00,
2013-06-09 16:22:00,62.2,47.8,30.10,NNW,340,1.0,6.0,59,0.00,,,0.00,WUHU216DAVISVP2,2013-06-09 23:22:00,
2013-06-09 16:27:00,62.2,47.8,30.10,NE,55,1.0,7.0,59,0.00,,,0.00,WUHU216DAVISVP2,2013-06-09 23:27:00,
2013-06-09 16:32:00,62.5,48.1,30.10,NNE,13,5.0,7.0,59,0.00,,,0.00,WUHU216DAVISVP2,2013-06-09 23:32:00,
2013-06-09 16:37:00,62.8,48.4,30.10,NE,51,1.0,7.0,59,0.00,,,0.00,WUHU216DAVISVP2,2013-06-09 23:37:00,
2013-06-09 16:42:00,63.0,48.1,30.10,North,355,3.0,7.0,58,0.00,,,0.00,WUHU216DAVISVP2,2013-06-09 23:42:00,
2013-06-09 16:47:00,63.0,47.5,30.09,NE,46,1.0,5.0,57,0.00,,,0.00,WUHU216DAVISVP2,2013-06-09 23:47:00,
2013-06-09 16:52:00,63.4,48.0,30.09,NE,37,0.0,6.0,57,0.00,,,0.00,WUHU216DAVISVP2,2013-06-09 23:52:00,
2013-06-09 16:57:00,63.5,48.1,30.09,NNE,17,3.0,6.0,57,0.00,,,0.00,WUHU216DAVISVP2,2013-06-09 23:57:00,
2013-06-09 17:02:00,63.7,47.8,30.09,NNE,13,5.0,6.0,56,0.00,,,0.00,WUHU216DAVISVP2,2013-06-10 00:02:00,
2013-06-09 17:07:00,63.9,48.0,30.09,NNE,30,0.0,6.0,56,0.00,,,0.00,WUHU216DAVISVP2,2013-06-10 00:07:00,
2013-06-09 17:12:00,64.2,47.7,30.09,North,349,0.0,6.0,55,0.00,,,0.00,WUHU216DAVISVP2,2013-06-10 00:12:00,
2013-06-09 17:17:00,64.3,47.4,30.09,North,355,2.0,8.0,54,0.00,,,0.00,WUHU216DAVISVP2,2013-06-10 00:17:00,
2013-06-09 17:22:00,64.1,48.2,30.09,NE,39,2.0,8.0,56,0.00,,,0.00,WUHU216DAVISVP2,2013-06-10 00:22:00,
2013-06-09 17:27:00,64.0,48.1,30.09,North,359,1.0,8.0,56,0.00,,,0.00,WUHU216DAVISVP2,2013-06-10 00:27:00,
2013-06-09 17:32:00,63.4,48.0,30.08,ENE,68,1.0,8.0,57,0.00,,,0.00,WUHU216DAVISVP2,2013-06-10 00:32:00,
2013-06-09 17:37:00,63.6,48.5,30.08,NNE,15,0.0,8.0,58,0.00,,,0.00,WUHU216DAVISVP2,2013-06-10 00:37:00,
2013-06-09 17:42:00,63.4,48.5,30.08,North,353,0.0,7.0,58,0.00,,,0.00,WUHU216DAVISVP2,2013-06-10 00:42:00,
2013-06-09 17:47:00,62.9,48.9,30.08,East,89,0.0,7.0,60,0.00,,,0.00,WUHU216DAVISVP2,2013-06-10 00:47:00,
2013-06-09 17:52:00,62.5,48.0,30.08,North,358,3.0,8.0,59,0.00,,,0.00,WUHU216DAVISVP2,2013-06-10 00:52:00,
2013-06-09 17:57:00,62.3,48.4,30.08,NE,46,0.0,12.0,60,0.00,,,0.00,WUHU216DAVISVP2,2013-06-10 00:57:00,
2013-06-09 18:02:00,62.3,48.4,30.08,NE,48,2.0,12.0,60,0.00,,,0.00,WUHU216DAVISVP2,2013-06-10 01:02:00,
2013-06-09 18:07:00,61.9,48.0,30.08,SE,146,1.0,11.0,60,0.00,,,0.00,WUHU216DAVISVP2,2013-06-10 01:07:00,
2013-06-09 18:12:00,61.5,47.9,30.08,NNW,334,6.0,11.0,61,0.00,,,0.00,WUHU216DAVISVP2,2013-06-10 01:12:00,
2013-06-09 18:17:00,61.0,47.6,30.08,North,349,2.0,12.0,61,0.00,,,0.00,WUHU216DAVISVP2,2013-06-10 01:17:00,
2013-06-09 18:22:00,61.1,47.7,30.08,NNE,18,2.0,12.0,61,0.00,,,0.00,WUHU216DAVISVP2,2013-06-10 01:22:00,
2013-06-09 18:27:00,61.0,47.6,30.07,NNW,342,3.0,11.0,61,0.00,,,0.00,WUHU216DAVISVP2,2013-06-10 01:27:00,
2013-06-09 18:32:00,60.8,47.4,30.08,North,356,0.0,11.0,61,0.00,,,0.00,WUHU216DAVISVP2,2013-06-10 01:32:00,
2013-06-09 18:37:00,60.7,47.6,30.07,North,4,3.0,11.0,62,0.00,,,0.00,WUHU216DAVISVP2,2013-06-10 01:37:00,
2013-06-09 18:42:00,60.6,47.5,30.07,NE,36,2.0,9.0,62,0.00,,,0.00,WUHU216DAVISVP2,2013-06-10 01:42:00,
2013-06-09 18:47:00,60.4,47.5,30.07,NNW,334,3.0,9.0,62,0.00,,,0.00,WUHU216DAVISVP2,2013-06-10 01:47:00,
2013-06-09 18:52:00,60.2,47.3,30.07,NE,49,0.0,9.0,62,0.00,,,0.00,WUHU216DAVISVP2,2013-06-10 01:52:00,
2013-06-09 18:57:00,60.1,47.2,30.07,NE,46,1.0,9.0,62,0.00,,,0.00,WUHU216DAVISVP2,2013-06-10 01:57:00,
2013-06-09 19:02:00,59.7,46.7,30.07,North,356,2.0,10.0,62,0.00,,,0.00,WUHU216DAVISVP2,2013-06-10 02:02:00,
2013-06-09 19:07:00,59.2,46.7,30.07,North,3,3.0,12.0,63,0.00,,,0.00,WUHU216DAVISVP2,2013-06-10 02:07:00,
2013-06-09 19:12:00,58.7,46.3,30.07,North,360,14.0,14.0,63,0.00,,,0.00,WUHU216DAVISVP2,2013-06-10 02:12:00,
2013-06-09 19:17:00,58.1,46.1,30.07,North,352,3.0,14.0,64,0.00,,,0.00,WUHU216DAVISVP2,2013-06-10 02:17:00,
2013-06-09 19:22:00,57.9,45.9,30.07,NNW,345,4.0,14.0,64,0.00,,,0.00,WUHU216DAVISVP2,2013-06-10 02:22:00,
2013-06-09 19:27:00,57.5,46.0,30.07,NNW,337,2.0,13.0,65,0.00,,,0.00,WUHU216DAVISVP2,2013-06-10 02:27:00,
2013-06-09 19:32:00,57.4,45.9,30.07,NNW,333,2.0,12.0,65,0.00,,,0.00,WUHU216DAVISVP2,2013-06-10 02:32:00,
2013-06-09 19:37:00,57.4,45.7,30.07,North,8,5.0,12.0,65,0.00,,,0.00,WUHU216DAVISVP2,2013-06-10 02:37:00,
2013-06-09 19:42:00,57.2,45.5,30.07,NNE,23,4.0,11.0,65,0.00,,,0.00,WUHU216DAVISVP2,2013-06-10 02:42:00,
2013-06-09 19:47:00,57.1,46.0,30.07,North,349,6.0,13.0,66,0.00,,,0.00,WUHU216DAVISVP2,2013-06-10 02:47:00,
2013-06-09 19:52:00,57.2,46.1,30.07,NNW,335,1.0,13.0,66,0.00,,,0.00,WUHU216DAVISVP2,2013-06-10 02:52:00,
2013-06-09 19:57:00,57.1,45.6,30.07,North,8,0.0,12.0,65,0.00,,,0.00,WUHU216DAVISVP2,2013-06-10 02:57:00,
2013-06-09 20:02:00,57.0,45.5,30.07,North,9,5.0,12.0,65,0.00,,,0.00,WUHU216DAVISVP2,2013-06-10 03:02:00,
2013-06-09 20:07:00,56.9,45.8,30.07,North,359,3.0,10.0,66,0.00,,,0.00,WUHU216DAVISVP2,2013-06-10 03:07:00,
2013-06-09 20:12:00,56.7,45.2,30.06,North,359,0.0,9.0,65,0.00,,,0.00,WUHU216DAVISVP2,2013-06-10 03:12:00,
2013-06-09 20:17:00,56.6,45.5,30.06,NE,39,2.0,9.0,66,0.00,,,0.00,WUHU216DAVISVP2,2013-06-10 03:17:00,
2013-06-09 20:22:00,56.5,45.4,30.06,NNE,22,1.0,9.0,66,0.00,,,0.00,WUHU216DAVISVP2,2013-06-10 03:22:00,
2013-06-09 20:27:00,56.4,45.2,30.06,North,359,2.0,9.0,66,0.00,,,0.00,WUHU216DAVISVP2,2013-06-10 03:27:00,
2013-06-09 20:32:00,56.0,45.3,30.06,NNE,27,2.0,9.0,67,0.00,,,0.00,WUHU216DAVISVP2,2013-06-10 03:32:00,
2013-06-09 20:37:00,55.7,45.0,30.06,NNW,330,1.0,9.0,67,0.00,,,0.00,WUHU216DAVISVP2,2013-06-10 03:37:00,
2013-06-09 20:42:00,55.4,45.1,30.06,North,10,1.0,8.0,68,0.00,,,0.00,WUHU216DAVISVP2,2013-06-10 03:42:00,
2013-06-09 20:47:00,55.1,45.2,30.06,North,360,1.0,8.0,69,0.00,,,0.00,WUHU216DAVISVP2,2013-06-10 03:47:00,
2013-06-09 20:52:00,54.8,44.8,30.06,NNE,32,0.0,7.0,69,0.00,,,0.00,WUHU216DAVISVP2,2013-06-10 03:52:00,
2013-06-09 20:57:00,54.6,45.1,30.07,North,354,3.0,7.0,70,0.00,,,0.00,WUHU216DAVISVP2,2013-06-10 03:57:00,
2013-06-09 21:01:00,54.4,44.9,30.07,NNE,18,0.0,7.0,70,0.00,,,0.00,WUHU216DAVISVP2,2013-06-10 04:01:00,
2013-06-09 21:02:00,54.4,44.9,30.07,NNE,15,0.0,6.0,70,0.00,,,0.00,WUHU216DAVISVP2,2013-06-10 04:02:00,
2013-06-09 21:07:00,54.2,44.7,30.07,NW,326,1.0,6.0,70,0.00,,,0.00,WUHU216DAVISVP2,2013-06-10 04:07:00,
2013-06-09 21:12:00,54.0,44.9,30.07,North,5,0.0,6.0,71,0.00,,,0.00,WUHU216DAVISVP2,2013-06-10 04:12:00,
2013-06-09 21:17:00,53.9,44.7,30.07,WNW,301,1.0,6.0,71,0.00,,,0.00,WUHU216DAVISVP2,2013-06-10 04:17:00,
2013-06-09 21:22:00,53.8,44.6,30.07,NNE,12,4.0,6.0,71,0.00,,,0.00,WUHU216DAVISVP2,2013-06-10 04:22:00,
2013-06-09 21:27:00,53.6,44.9,30.07,North,6,2.0,7.0,72,0.00,,,0.00,WUHU216DAVISVP2,2013-06-10 04:27:00,
2013-06-09 21:32:00,53.5,44.8,30.07,NNW,342,1.0,7.0,72,0.00,,,0.00,WUHU216DAVISVP2,2013-06-10 04:32:00,
2013-06-09 21:37:00,53.4,44.7,30.07,North,1,1.0,6.0,72,0.00,,,0.00,WUHU216DAVISVP2,2013-06-10 04:37:00,
2013-06-09 21:42:00,53.3,44.6,30.08,NNE,15,3.0,6.0,72,0.00,,,0.00,WUHU216DAVISVP2,2013-06-10 04:42:00,
2013-06-09 21:47:00,53.3,44.6,30.08,North,360,0.0,5.0,72,0.00,,,0.00,WUHU216DAVISVP2,2013-06-10 04:47:00,
2013-06-09 21:52:00,53.3,44.6,30.08,NNE,17,2.0,5.0,72,0.00,,,0.00,WUHU216DAVISVP2,2013-06-10 04:52:00,
2013-06-09 21:57:00,53.2,44.5,30.08,North,5,1.0,5.0,72,0.00,,,0.00,WUHU216DAVISVP2,2013-06-10 04:57:00,
2013-06-09 22:02:00,53.2,44.4,30.08,NNW,345,2.0,6.0,72,0.00,,,0.00,WUHU216DAVISVP2,2013-06-10 05:02:00,
2013-06-09 22:07:00,53.2,44.8,30.08,North,356,0.0,6.0,73,0.00,,,0.00,WUHU216DAVISVP2,2013-06-10 05:07:00,
2013-06-09 22:12:00,53.2,44.9,30.08,NNW,343,0.0,5.0,73,0.00,,,0.00,WUHU216DAVISVP2,2013-06-10 05:12:00,
2013-06-09 22:17:00,53.1,44.8,30.08,NNE,16,0.0,6.0,73,0.00,,,0.00,WUHU216DAVISVP2,2013-06-10 05:17:00,
2013-06-09 22:22:00,53.1,44.8,30.08,North,349,3.0,6.0,73,0.00,,,0.00,WUHU216DAVISVP2,2013-06-10 05:22:00,
2013-06-09 22:27:00,53.0,44.7,30.08,North,354,0.0,5.0,73,0.00,,,0.00,WUHU216DAVISVP2,2013-06-10 05:27:00,
2013-06-09 22:32:00,53.0,44.7,30.08,NNE,13,0.0,5.0,73,0.00,,,0.00,WUHU216DAVISVP2,2013-06-10 05:32:00,
2013-06-09 22:37:00,53.0,44.6,30.08,NW,310,1.0,5.0,73,0.00,,,0.00,WUHU216DAVISVP2,2013-06-10 05:37:00,
2013-06-09 22:42:00,53.1,44.8,30.08,ENE,62,0.0,5.0,73,0.00,,,0.00,WUHU216DAVISVP2,2013-06-10 05:42:00,
2013-06-09 22:47:00,53.2,44.9,30.08,NNE,19,2.0,5.0,73,0.00,,,0.00,WUHU216DAVISVP2,2013-06-10 05:47:00,
2013-06-09 22:52:00,53.3,44.9,30.08,NNE,20,1.0,5.0,73,0.00,,,0.00,WUHU216DAVISVP2,2013-06-10 05:52:00,
2013-06-09 22:57:00,53.3,44.9,30.08,NNE,23,0.0,5.0,73,0.00,,,0.00,WUHU216DAVISVP2,2013-06-10 05:57:00,
2013-06-09 23:02:00,53.4,45.1,30.08,North,11,2.0,5.0,73,0.00,,,0.00,WUHU216DAVISVP2,2013-06-10 06:02:00,
2013-06-09 23:07:00,53.3,45.0,30.08,North,6,2.0,7.0,73,0.00,,,0.00,WUHU216DAVISVP2,2013-06-10 06:07:00,
2013-06-09 23:12:00,53.2,44.9,30.08,North,6,1.0,8.0,73,0.00,,,0.00,WUHU216DAVISVP2,2013-06-10 06:12:00,
2013-06-09 23:17:00,53.2,44.9,30.08,North,352,2.0,8.0,73,0.00,,,0.00,WUHU216DAVISVP2,2013-06-10 06:17:00,
2013-06-09 23:22:00,53.2,44.9,30.08,NNW,345,0.0,8.0,73,0.00,,,0.00,WUHU216DAVISVP2,2013-06-10 06:22:00,
2013-06-09 23:27:00,53.0,44.7,30.08,NW,311,2.0,7.0,73,0.00,,,0.00,WUHU216DAVISVP2,2013-06-10 06:27:00,
2013-06-09 23:32:00,52.9,44.9,30.08,East,80,0.0,7.0,74,0.00,,,0.00,WUHU216DAVISVP2,2013-06-10 06:32:00,
2013-06-09 23:37:00,52.9,44.9,30.08,North,359,1.0,6.0,74,0.00,,,0.00,WUHU216DAVISVP2,2013-06-10 06:37:00,
2013-06-09 23:42:00,52.8,44.8,30.08,NNW,340,1.0,6.0,74,0.00,,,0.00,WUHU216DAVISVP2,2013-06-10 06:42:00,
2013-06-09 23:47:00,52.7,44.6,30.08,North,352,7.0,7.0,74,0.00,,,0.00,WUHU216DAVISVP2,2013-06-10 06:47:00,
2013-06-09 23:52:00,52.6,44.6,30.08,ENE,65,2.0,10.0,74,0.00,,,0.00,WUHU216DAVISVP2,2013-06-10 06:52:00,
2013-06-09 23:57:00,52.5,44.9,30.08,North,355,1.0,10.0,75,0.00,,,0.00,WUHU216DAVISVP2,2013-06-10 06:57:00,